Volver al catálogo

STARLINK-35320

ActivoComunicacionesVLEO
NORAD 65834·PAYLOAD·🇺🇸 United States

Lanzado Sep 29, 2025 desde Vandenberg Space Force Base

Loading…

Próximos Pases (próximas 24 horas)

TLE

ActualizadoSource: CelesTrak SupGP

Época: Sep 14, 2026, 22:57 UTC

1 65834C 25221M   26257.95673611  .00058829  00000+0  17383-2 0  2570
2 65834  53.1564 287.7223 0001215  86.9243 220.5378 15.34358065    12

Sigue STARLINK-35320 en tiempo real con AllMySat

Download on the App Store